www.pogodaiklimat.ru

Погода и климат >> Архив погоды >> Россия >> Краснодарский край >> Сочи


АРХИВ ПОГОДЫ в Сочи

Время (UTC), дата Ветер
(напр.,м/с)
 
Видим.   Явления Облачность Т
(С)
Тd
(С)
f
(%)
Тe
(С)
Тes
(С)
Комфортность P
(гПа)
Po
(гПа)
Тmin
(С)
Tmax
(С)
R
(мм)
R24
(мм)
S
(см)
09 12.03 В 7-11
{11}
20 км 10/0
[Ac trans Cs]
+16.8 +4.8 45 +16 +17 тепло 1009.0 993.5
12 12.03 В 6-11
{14}
20 км 10/0
[Ac As]
+16.0 +2.8 41 +15 +16 тепло 1009.9 994.4
15 12.03 В 4 20 км 10/0
[Ac As]
+17.4 +2.2 36 +17 +17 тепло 1010.0 994.5 +19.0 0.0
18 12.03 В 5 20 км слаб. ливневой дождь 10/8 1000 м
[Cb cap Ac As]
+15.2 +3.7 46 +14 +14 тепло 1011.2 995.6
21 12.03 В 4 12 км слаб. ливневой дождь 10/10 1000 м
[Cb cap]
+11.2 +9.9 92 +9 +9 тепло 1012.7 996.9
00 13.03 В 3 5000 м слаб. ливневой дождь 10/10 1000 м
[Cb cap]
+10.3 +10.3 100 +8 +8 по сезону 1012.2 996.3
03 13.03 В 1 5000 м слаб. ливневой дождь 10/10 1000 м
[Cb cap]
+10.3 +10.3 100 +10 +10 тепло 1011.1 995.3 +10.2 7
06 13.03 В 5 5000 м слаб. ливневой дождь 10/10 300 м
[Cb cap]
+10.4 +10.4 100 +7 +7 по сезону 1011.3 995.5 +10.1
09 13.03 В 5 20 км в посл. час ливневой дождь 10/10 1000 м
[Cb cap]
+13.7 +8.7 72 +12 +12 тепло 1010.1 994.5
12 13.03 С 2 8000 м слаб. ливневой дождь 10/10 300 м
[Cb cap]
+9.8 +9.8 100 +8 +8 по сезону 1011.6 995.7
15 13.03 ЮВ 2 5000 м слаб. ливневой дождь 10/10 200 м
[Cb cap]
+9.4 +9.4 100 +8 +8 по сезону 1012.3 996.4 +13.8 6
18 13.03 З 1 5000 м слаб. ливневой дождь {туман} 10/10 100 м
[Cb cap]
+7.9 +7.9 100 +7 +7 по сезону 1013.5 997.5
21 13.03 З 1 1000 м слаб. ливневой дождь 10/10 100 м
[Cb cap]
+7.2 +7.2 100 +6 +6 по сезону 1014.4 998.3
00 14.03 В 1 8000 м слаб. ливневой дождь 10/10 200 м
[Cb cap]
+7.5 +7.5 100 +6 +6 по сезону 1014.7 998.6
03 14.03 ЮВ 2 4000 м слаб. ливневой дождь {туман} 10/10 200 м
[Cb cap]
+8.0 +8.0 100 +6 +6 по сезону 1014.6 998.6 +7.1 8
06 14.03 Ю 1 200 м слаб. ливневой дождь {туман} туман 10/10 200 м
[Cb cap]
+7.8 +7.8 100 +7 +7 по сезону 1014.9 998.9
09 14.03 ЮЗ 1 4000 м дымка {ливн. осадки, туман} 10/9 200 м
[Cb cap Ac trans Ci fib]
+9.2 +9.2 100 +8 +9 по сезону 1013.2 997.3
12 14.03 З 2 18 км {ливн. осадки, туман} 9/3 300 м
[Sc Ac trans Ci sp]
+10.4 +10.4 100 +9 +11 по сезону 1011.3 995.5
15 14.03 СЗ 2 20 км 9/6 300 м
[Sc Ac trans Ci sp]
+8.6 +8.6 100 +7 +7 по сезону 1011.1 995.2 +11.3 2
18 14.03 С 1 12 км 3/0
[Ci fib]
+7.9 +7.9 100 +7 +7 по сезону 1010.9 994.9
21 14.03 ЮВ 1 1700 м дымка 10/10 200 м
[Cb cap]
+8.0 +8.0 100 +7 +7 по сезону 1011.1 995.1
00 15.03 З 1 18 км в посл. час туман 10/10 300 м
[Cb cap]
+7.5 +7.5 100 +6 +6 по сезону 1010.1 994.1
03 15.03 ЮЗ 1 8000 м дымка {туман} 10/10 300 м
[Cb cap]
+7.4 +7.4 100 +6 +6 по сезону 1009.3 993.3 +7.3
06 15.03 штиль 0 1000 м дымка {туман} 10/10 200 м
[St]
+8.3 +8.3 100 +7 +7 по сезону 1008.2 992.3
09 15.03 З 1 20 км 10/10 600 м
[Sc]
+10.0 +8.8 92 +9 +9 по сезону 1008.0 992.2
12 15.03 СЗ 2 6000 м слаб. ливневой дождь 10/10 200 м
[Cb cap]
+8.3 +8.3 100 +6 +6 прохладно 1008.5 992.6
15 15.03 В 3 20 км в посл. час ливневой дождь 10/8 1000 м
[Sc Ac cast Cc]
+9.9 +9.8 99 +7 +7 по сезону 1006.7 990.9 +11.1 3
18 15.03 СВ 1 7000 м слаб. ливневой дождь 10/10 200 м
[Cb cap]
+8.3 +8.3 100 +7 +7 по сезону 1009.0 993.1
21 15.03 СЗ 2 20 км {ливн. осадки} 10/10 600 м
[St]
+7.7 +7.7 100 +5 +5 по сезону 1009.4 993.4
00 16.03 СЗ 2 10 км {ливн. осадки} 10/10 300 м
[St]
+7.8 +7.8 100 +6 +6 по сезону 1008.0 992.1
03 16.03 В 1 10 км слаб. ливневой дождь 10/10 600 м
[Cb cap]
+7.8 +7.8 100 +7 +7 по сезону 1008.3 992.4 +7.4 3
06 16.03 СЗ 2 4000 м дымка {ливн. осадки} 10/10 200 м
[St]
+7.4 +7.4 100 +5 +5 по сезону 1008.4 992.4 +7.3
09 16.03 З 3 300 м дождь {морось} туман ?/? +7.1 +7.1 100 +4 +4 прохладно 1009.5 993.5
12 16.03 СЗ 3 4000 м дождь {морось} 10/10 200 м
[Frnb Ns]
+7.0 +7.0 100 +4 +4 прохладно 1010.6 994.6
15 16.03 СЗ 1 6000 м слаб. дождь 10/10 200 м
[Frnb Ns]
+6.6 +6.6 100 +5 +5 прохладно 1011.9 995.8 +8.5 19
18 16.03 В 1 6000 м слаб. дождь 10/10 300 м
[Frnb Ns]
+6.0 +6.0 100 +5 +5 по сезону 1013.2 997.1
21 16.03 В 2 19 км слаб. ливневой дождь 10/10 300 м
[Cb cap]
+5.3 +5.3 100 +2 +2 прохладно 1012.8 996.6
00 17.03 В 2 20 км слаб. ливневой дождь 10/10 300 м
[Cb cap]
+5.5 +5.5 100 +3 +3 по сезону 1010.6 994.5
03 17.03 ЮВ 4 15 км слаб. ливневой дождь 10/10 300 м
[Cb cap]
+6.6 +6.6 100 +3 +3 прохладно 1010.0 994.0 +5.1 7
06 17.03 В 2 15 км ливневой дождь 10/10 600 м
[Cb cap]
+5.3 +5.3 100 +2 +2 холодно 1012.0 995.8 +5.0
09 17.03 В 4 19 км слаб. ливневой дождь 10/10 600 м
[Cb cap]
+3.9 +3.9 100 -1 -1 очень
холодно
1013.4 997.1
12 17.03 В 2 17 км слаб. ливневой дождь 10/10 300 м
[Cb cap]
+5.6 +5.6 100 +3 +3 холодно 1015.5 999.3
15 17.03 В 1 20 км {ливн. осадки} 10/9 300 м
[Cb cap Ac trans Ci fib]
+6.0 +6.0 100 +5 +5 прохладно 1018.0 1001.8 +6.8 16
18 17.03 В 2 20 км {ливн. осадки} 10/4 1000 м
[Cu med, cong Ac trans Ci fib]
+4.8 +4.8 100 +2 +2 прохладно 1020.2 1003.9
21 17.03 В 2 8000 м слаб. ливневой дождь 10/10 600 м
[Cb cap]
+4.6 +4.6 100 +2 +2 прохладно 1020.7 1004.4
00 18.03 В 3 20 км в посл. час ливневой дождь 10/10 600 м
[Cb cap]
+3.8 +3.8 100 -0 -0 холодно 1021.3 1004.9
03 18.03 В 1 20 км 10/9 1000 м
[Cu Sc Ac trans Ci fib]
+4.0 +3.9 99 +2 +2 прохладно 1021.9 1005.5 +3.6 5
06 18.03 штиль 0 20 км 10/0
[Ac trans Ci fib]
+8.0 +3.3 72 +7 +11 по сезону 1022.9 1006.7
09 18.03 З 3 20 км 4/4 1000 м
[Cu med, cong]
+9.3 +4.3 71 +7 +13 по сезону 1023.2 1007.1
12 18.03 З 4 20 км 3/3 1000 м
[Cu Sc]
+9.8 +4.6 70 +7 +11 по сезону 1023.1 1007.0
15 18.03 СЗ 2 20 км 4/4 1000 м
[Cu Sc]
+8.5 +4.9 78 +7 +7 по сезону 1023.1 1007.0 +10.6
18 18.03 В 1 20 км ясно +5.9 +5.9 100 +5 +5 по сезону 1023.2 1006.9
21 18.03 В 2 20 км 8/8 1000 м
[Sc]
+5.4 +5.0 97 +3 +3 прохладно 1023.7 1007.4
00 19.03 В 2 20 км 8/8 1000 м
[Sc]
+5.5 +4.3 92 +3 +3 прохладно 1024.1 1007.8
03 19.03 В 3 20 км ясно +4.1 +3.1 93 0 0 холодно 1024.4 1008.0 +4.0
06 19.03 В 1 20 км ясно +9.4 +3.2 65 +9 +15 по сезону 1024.4 1008.3

 

Местоположение метеостанции Сочи (Краснодарский край, Россия): широта 43.58 долгота 39.77 высота над уровнем моря 132 м.

В архиве по умолчанию представлена погода в Сочи за последнюю неделю. Архивные данные за месяц целиком и за предыдущие месяцы, начиная с января 2011 года, Вы можете получить, выбрав интересующий диапазон дат из раскрывающегося списка и нажав кнопку "Ввод!".


*Определитесь, кто Вы:
робот инопланетянин человек

Внимание! Время в таблицах - всемирное. Для получения местного времени необходимо прибавить поправку, которая равна 3 ч.

Смотрите также архив погоды в соседних городах и на ближайших метеорологических станциях:

Погода в Сочи аэропорт (Адлере) (Краснодарский край, Россия) (20 км)
Погода в Кепше (Краснодарский край, Россия) (23 км)
Погода в Имеретинке (Краснодарский край, Россия) (25 км)
Погода в Солох Ауле (Краснодарский край, Россия) (27 км)
Погода в Кичмае (Краснодарский край, Россия) (35 км)
Погода в Красной Поляне (Краснодарский край, Россия) (36 км)
Погода в Горная Карусель 1500 (Краснодарский край, Россия) (43 км)
Погода в Горная Карусель 1000 (Краснодарский край, Россия) (43 км)
Погода на Кордоне Лаура (Краснодарский край, Россия) (45 км)
Погода в Лазаревском (Краснодарский край, Россия) (50 км)

Пояснения к столбцам:

Ветер - указаны скорость ветра в м/с - средняя за 10 мин, порывы в срок и между сроками (в фигурных скобках) и направление, откуда дует ветер: С - северный, СВ - северо-восточный, В - восточный, ЮВ - юго-восточный, Ю - южный, ЮЗ - юго-западный, З - западный, СЗ - северо-западный.
Видимость - горизонтальная дальность видимости в метрах или километрах. При видимости от 1 до 10 км при отсутствии осадков обычно наблюдается дымка, при ухудшении видимости до 1 км и менее - туман. В сухую погоду видимость может ухудшаться дымом, пылью или мглою.
Явления - указаны атмосферные явления, наблюдавшиеся в срок или в последний час перед сроком; фигурными скобками обозначены явления, наблюдавшиеся между сроками (за 1-3 часа до срока); квадратными скобками обозначены град или гололедные отложения с указанием их диаметра в мм.
Облачность - указаны через наклонную черту общая и нижняя облачность в баллах и высота нижней границы облаков в метрах; квадратными скобками обозначены формы облаков: Ci - перистые, Cs - перисто-слоистые, Cc - перисто-кучевые, Ac - высококучевые, As - высокослоистые, Sc - слоисто-кучевые, Ns - слоисто-дождевые, Cu - кучевые, Cb - кучево-дождевые. Подробнее классификацию облаков см. в Атласе облаков (PDF).
T - Температура воздуха - температура, измеренная на высоте 2 м над землей.
Td - Температура точки росы - температура, при понижении до которой содержащийся в воздухе водяной пар достигнет насыщения.
f - Относительная влажность воздуха - влажноcть воздуха, измеренная на высоте 2 м над землей.
Te - Эффективная температура - температура, которую ощущает одетый по сезону человек в тени. Характеристика душности погоды. При расчете учитывается влияние влажности воздуха и скорости ветра на теплоощущения человека.
Tes - Эффективная температура на солнце - температура, которую ощущает человек, с поправкой на солнечный нагрев. Характеристика знойности погоды. Зависит от высоты солнца над горизонтом, облачности и скорости ветра. Ночью, в пасмурную погоду, а также при ветре 12 м/с и более поправка равна нулю.
P - Атмосферное давление - приведенное к уровню моря атмосферное давление.
Po - Атмосферное давление - измеренное на уровне метеостанции атмосферное давление.
Tmin - Минимальная температура - минимум температуры воздуха на высоте 2 м над землей.
Tmax - Максимальная температура - максимум температуры воздуха на высоте 2 м над землей.
R - Количество осадков - Количество выпавших осадков за период времени, мм. При наведении курсора мыши на число - период времени, за который выпало указанное количество осадков.
R24 - Количество осадков - Количество выпавших осадков за 24 часа, мм.
S - Снежный покров - Высота снежного покрова, см. При наведении курсора мыши на число - состояние снежного покрова и степень покрытия местности в баллах.